Location: Goll?ig?dem
(16.6773°N, 80.7332°E)
Time: 17:06:44
(UTC+00:00)

DMSP B5D2-2 - Pass Details

Date: 19 May 2025
Orbit: 786 x 800 km, 98.4° (Epoch: 12 June)

Event Time Altitude Azimuth Distance (km) Brightness Sun altitude
Exits shadow 22:36:58 37° 221° (SW) 1,205 4.5 -19.9°
Maximum altitude 22:38:17 45° 259° (W) 1,067 4.3 -19.6°
Drops below altitude 10° 22:43:14 10° 332° (NNW) 2,354 6.5 -18.6°
Sets 22:45:40 0° 338° (NNW) 3,286 7.4 -18.1°
